Tehachapi, CA

9:02 AM PST on December 07, 2019 (GMT -0800)
Tehachapi Municipal

Weather History for KTSP - October, 2019

Change the Weather History Date:

Saturday, October 19, 2019

  Actual Average Record
Temperature  
Mean Temperature 48 °F -  
Max Temperature 59 °F 70 °F 77 °F (2013)
Min Temperature 37 °F 39 °F 32 °F (2018)
Degree Days  
Heating Degree Days 17    
Moisture  
Dew Point 36 °F    
Average Humidity 62    
Maximum Humidity 81    
Minimum Humidity 42    
Precipitation  
Precipitation 0.00 in - - ()
Sea Level Pressure  
Sea Level Pressure 30.08 in    
Wind  
Wind Speed 10 mph ()    
Max Wind Speed 24 mph    
Max Gust Speed 30 mph    
Visibility 9.4 miles    
Events      
Averages and records for this station are not official NWS values.
T = Trace of Precipitation, MM = Missing Value Source: Averaged Metar Reports

Daily Weather History Graph

Daily Weather History Graph

Search for Another Location

Airport or City:

Astronomy

Oct. 19, 2019 Rise Set
Actual Time 7:03 AM PDT 6:13 PM PDT
Civil Twilight 6:37 AM PDT 6:39 PM PDT
Nautical Twilight 6:07 AM PDT 7:08 PM PDT
Astronomical Twilight 5:38 AM PDT 7:38 PM PDT
Moon 10:36 PM PDT (10/19) 12:30 PM PDT (10/19)
Length of Visible Light 12h 02m
Length of Day
11h 10m
Waning Gibbous, 68% of the Moon is Illuminated
Oct 19
Waning Gibbous
Oct 21
Last Quarter
Oct 27
New
Nov 4
First Quarter
Nov 12
Full

Hourly Weather History & Observations

Time (PDT) Temp. Windchill Dew Point Humidity Pressure Visibility Wind Dir Wind Speed Gust Speed Precip Events Conditions
12:15 AM 46.4 °F 44.3 °F 33.8 °F 62% 30.08 in 10.0 mi NW 4.6 mph - N/A   Clear
12:35 AM 41.0 °F - 32.0 °F 70% 30.09 in 10.0 mi Calm Calm - N/A   Clear
12:55 AM 44.6 °F 40.7 °F 32.0 °F 61% 30.09 in 10.0 mi WSW 6.9 mph - N/A   Clear
1:15 AM 42.8 °F 37.5 °F 32.0 °F 66% 30.08 in 10.0 mi West 9.2 mph - N/A   Clear
1:35 AM 44.6 °F 39.2 °F 33.8 °F 66% 30.09 in 10.0 mi WNW 10.4 mph - N/A   Clear
1:55 AM 44.6 °F 40.2 °F 32.0 °F 61% 30.09 in 10.0 mi WNW 8.1 mph - N/A   Clear
2:15 AM 42.8 °F 38.6 °F 32.0 °F 66% 30.09 in 10.0 mi West 6.9 mph - N/A   Clear
2:35 AM 41.0 °F 37.1 °F 32.0 °F 70% 30.10 in 10.0 mi WNW 5.8 mph - N/A   Clear
2:55 AM 41.0 °F 35.8 °F 32.0 °F 70% 30.09 in 10.0 mi West 8.1 mph - N/A   Clear
3:15 AM 41.0 °F 35.8 °F 32.0 °F 70% 30.09 in 10.0 mi West 8.1 mph - N/A   Clear
3:35 AM 41.0 °F 38.0 °F 32.0 °F 70% 30.08 in 10.0 mi West 4.6 mph - N/A   Clear
3:55 AM 41.0 °F 37.1 °F 32.0 °F 70% 30.08 in 10.0 mi NW 5.8 mph - N/A   Clear
4:15 AM 39.2 °F 37.0 °F 32.0 °F 75% 30.07 in 10.0 mi West 3.5 mph - N/A   Clear
4:35 AM 39.2 °F - 32.0 °F 75% 30.07 in 10.0 mi North - - N/A   Clear
4:55 AM 39.2 °F - 32.0 °F 75% 30.07 in 10.0 mi Calm Calm - N/A   Clear
5:15 AM 39.2 °F 34.2 °F 32.0 °F 75% 30.08 in 10.0 mi West 6.9 mph - N/A   Clear
5:55 AM 41.0 °F 38.0 °F 32.0 °F 70% 30.08 in 10.0 mi NW 4.6 mph - N/A   Clear
6:15 AM 37.4 °F - 32.0 °F 81% 30.08 in 10.0 mi Calm Calm - N/A   Clear
6:35 AM 37.4 °F 32.1 °F 32.0 °F 81% 30.08 in 10.0 mi NNW 6.9 mph - N/A   Clear
6:55 AM 39.2 °F 35.9 °F 32.0 °F 75% 30.09 in 10.0 mi West 4.6 mph - N/A   Clear
7:35 AM 39.2 °F 35.0 °F 32.0 °F 75% 30.09 in 9.0 mi West 5.8 mph - N/A   Clear
7:55 AM 44.6 °F 40.7 °F 35.6 °F 71% 30.09 in 10.0 mi WNW 6.9 mph - N/A   Clear
8:15 AM 48.2 °F - 35.6 °F 62% 30.11 in 10.0 mi WNW 8.1 mph - N/A   Clear
8:35 AM 48.2 °F - 35.6 °F 62% 30.12 in 10.0 mi NW 13.8 mph - N/A   Clear
8:55 AM 50.0 °F - 35.6 °F 58% 30.10 in 10.0 mi NW 8.1 mph - N/A   Clear
9:15 AM 51.8 °F - 35.6 °F 54% 30.11 in 10.0 mi WNW 12.7 mph - N/A   Clear
9:35 AM 53.6 °F - 35.6 °F 51% 30.12 in 10.0 mi WNW 12.7 mph 20.7 mph N/A   Clear
9:55 AM 53.6 °F - 35.6 °F 51% 30.11 in 10.0 mi NW 12.7 mph - N/A   Clear
10:15 AM 55.4 °F - 35.6 °F 47% 30.12 in 10.0 mi NW 19.6 mph 24.2 mph N/A   Clear
10:35 AM 55.4 °F - 35.6 °F 47% 30.12 in 9.0 mi NW 16.1 mph - N/A   Clear
10:55 AM 55.4 °F - 35.6 °F 47% 30.12 in 10.0 mi NW 21.9 mph 25.3 mph N/A   Clear
11:15 AM 55.4 °F - 35.6 °F 47% 30.12 in 8.0 mi NW 19.6 mph - N/A   Clear
11:35 AM 57.2 °F - 35.6 °F 44% 30.13 in 10.0 mi NW 24.2 mph 28.8 mph N/A   Clear
11:55 AM 57.2 °F - 35.6 °F 44% 30.12 in 9.0 mi NW 17.3 mph 24.2 mph N/A   Clear
12:15 PM 55.4 °F - 37.4 °F 51% 30.11 in 9.0 mi NW 16.1 mph 20.7 mph N/A   Clear
12:35 PM 55.4 °F - 37.4 °F 51% 30.10 in 10.0 mi NW 13.8 mph 17.3 mph N/A   Clear
12:55 PM 57.2 °F - 37.4 °F 48% 30.09 in 7.0 mi NW 13.8 mph 19.6 mph N/A   Clear
1:15 PM 59.0 °F - 37.4 °F 45% 30.08 in 7.0 mi NW 17.3 mph - N/A   Clear
1:35 PM 57.2 °F - 37.4 °F 48% 30.08 in 7.0 mi NW 20.7 mph 25.3 mph N/A   Clear
1:55 PM 57.2 °F - 37.4 °F 48% 30.08 in 7.0 mi NW 20.7 mph 29.9 mph N/A   Clear
2:15 PM 57.2 °F - 37.4 °F 48% 30.08 in 8.0 mi NW 19.6 mph 27.6 mph N/A   Clear
2:35 PM 59.0 °F - 35.6 °F 42% 30.08 in 7.0 mi NW 21.9 mph 27.6 mph N/A   Clear
2:55 PM 57.2 °F - 35.6 °F 44% 30.06 in 8.0 mi NW 18.4 mph 23.0 mph N/A   Clear
3:15 PM 57.2 °F - 37.4 °F 48% 30.05 in 6.0 mi NW 18.4 mph 25.3 mph N/A   Haze
3:35 PM 57.2 °F - 37.4 °F 48% 30.05 in 7.0 mi NW 23.0 mph 29.9 mph N/A   Clear
3:55 PM 55.4 °F - 37.4 °F 51% 30.05 in 9.0 mi NW 19.6 mph 27.6 mph N/A   Clear
4:15 PM 55.4 °F - 39.2 °F 54% 30.04 in 8.0 mi WNW 19.6 mph 29.9 mph N/A   Clear
4:35 PM 55.4 °F - 37.4 °F 51% 30.04 in 8.0 mi WNW 20.7 mph 25.3 mph N/A   Clear
4:55 PM 55.4 °F - 37.4 °F 51% 30.03 in 9.0 mi WNW 19.6 mph 28.8 mph N/A   Clear
5:15 PM 53.6 °F - 37.4 °F 54% 30.03 in 9.0 mi WNW 19.6 mph 29.9 mph N/A   Clear
5:35 PM 53.6 °F - 37.4 °F 54% 30.03 in 8.0 mi WNW 21.9 mph 27.6 mph N/A   Clear
5:55 PM 51.8 °F - 39.2 °F 62% 30.04 in 8.0 mi NW 18.4 mph 27.6 mph N/A   Clear
6:15 PM 50.0 °F - 39.2 °F 66% 30.04 in 9.0 mi WNW 20.7 mph 28.8 mph N/A   Clear
6:35 PM 50.0 °F - 39.2 °F 66% 30.04 in 9.0 mi WNW 16.1 mph 28.8 mph N/A   Clear
6:55 PM 50.0 °F - 39.2 °F 66% 30.05 in 10.0 mi WNW 21.9 mph 28.8 mph N/A   Clear
7:15 PM 50.0 °F - 39.2 °F 66% 30.06 in 10.0 mi WNW 16.1 mph 25.3 mph N/A   Clear
7:35 PM 48.2 °F - 39.2 °F 71% 30.06 in 10.0 mi WNW 17.3 mph 23.0 mph N/A   Clear
7:55 PM 48.2 °F - 39.2 °F 71% 30.05 in 10.0 mi West 17.3 mph - N/A   Clear
8:15 PM 48.2 °F - 39.2 °F 71% 30.05 in 10.0 mi West 17.3 mph 23.0 mph N/A   Clear
8:35 PM 48.2 °F - 39.2 °F 71% 30.06 in 10.0 mi West 15.0 mph - N/A   Clear
8:55 PM 48.2 °F - 39.2 °F 71% 30.05 in 10.0 mi West 15.0 mph 19.6 mph N/A   Clear
9:15 PM 48.2 °F - 39.2 °F 71% 30.05 in 10.0 mi West 15.0 mph - N/A   Clear
9:35 PM 48.2 °F - 39.2 °F 71% 30.05 in 10.0 mi West 15.0 mph - N/A   Clear
9:55 PM 48.2 °F - 39.2 °F 71% 30.05 in 10.0 mi West 12.7 mph 19.6 mph N/A   Clear
10:15 PM 48.2 °F - 37.4 °F 66% 30.05 in 10.0 mi West 15.0 mph - N/A   Clear
10:35 PM 48.2 °F - 37.4 °F 66% 30.05 in 10.0 mi West 13.8 mph 20.7 mph N/A   Clear
10:55 PM 48.2 °F - 39.2 °F 71% 30.05 in 10.0 mi West 13.8 mph 17.3 mph N/A   Clear
11:15 PM 46.4 °F 40.4 °F 39.2 °F 76% 30.05 in 10.0 mi West 13.8 mph - N/A   Clear
11:35 PM 46.4 °F 41.9 °F 39.2 °F 76% 30.06 in 10.0 mi West 9.2 mph - N/A   Clear
11:55 PM 46.4 °F 41.5 °F 39.2 °F 76% 30.06 in 10.0 mi West 10.4 mph - N/A   Clear